Wetbulb
51.30 51.66 51.74 51.85 51.83 51.93 52.51 52.90 53.29 53.57 53.97 54.38 54.90 55.15 55.60 56.29 55.76 57.65 51.36 53.56 54.85 60.26 59.74 54.55 55.07 54.34 55.68 53.42 54.55 53.76 46.61 45.81 48.10 48.74 49.12 52.58 51.48 53.68 55.93 52.97 54.14 56.45 61.14 65.45 68.56
51.30 51.48 51.77 51.90 51.77 52.03 52.48 52.79 52.98 53.42 53.88 54.32 54.67 54.95 55.82 56.23 54.92 55.26 54.01 60.67 60.13 60.45 52.17 52.21 53.28 54.13 51.45 52.74 52.90 49.59 46.47 48.39 51.85 51.88 50.23 51.03 50.59 51.83 52.01 50.99 51.77 53.34 56.85 65.34 68.10
51.24 51.33 51.39 51.68 51.65 51.96 52.30 52.44 52.83 53.44 53.96 54.29 54.70 55.05 55.83 55.82 53.45 51.80 59.47 59.88 60.31 58.78 53.15 53.46 52.29 53.34 50.07 52.48 51.69 50.77 48.02 50.95 49.69 50.54 51.23 50.73 49.97 51.79 51.27 48.40 50.93 51.33 53.38 55.74 62.98
50.79 51.08 51.19 51.54 51.63 51.66 51.88 52.62 52.85 53.50 53.89 54.30 54.99 55.33 55.94 55.10 46.44 51.51 60.89 60.12 61.72 55.98 52.96 51.38 50.82 50.83 49.21 49.16 52.45 49.29 51.84 51.74 49.97 49.21 49.60 49.48 51.25 48.73 49.22 49.80 52.53 53.25 54.45 54.84 55.12
50.65 50.82 50.82 51.30 51.19 51.10 51.58 52.63 52.81 53.04 53.53 54.51 55.17 55.52 55.52 49.29 50.15 54.21 60.35 61.01 54.53 52.38 51.21 50.34 49.42 50.71 48.25 50.07 51.34 49.40 49.75 49.30 49.34 48.84 48.62 49.93 50.39 49.08 49.26 51.38 53.08 53.70 54.25 54.34 55.52
50.27 50.37 50.62 50.80 50.76 50.74 51.35 52.46 52.71 52.86 53.55 54.59 55.21 55.08 52.32 46.26 53.85 54.71 53.75 52.18 51.57 51.57 51.50 50.82 49.94 51.80 49.76 50.01 49.58 51.87 49.11 47.52 48.02 48.01 47.98 48.83 48.52 49.45 50.15 52.49 52.52 52.96 53.33 56.61 57.45
50.56 50.34 50.16 50.34 50.04 50.51 51.27 51.94 52.54 52.88 53.39 54.60 55.18 54.42 51.99 49.68 53.75 54.39 53.41 51.25 51.24 51.70 50.56 52.00 52.33 50.52 51.70 48.18 51.11 50.75 45.09 46.04 46.48 47.49 45.99 49.66 46.13 46.78 51.17 52.32 51.78 52.61 55.44 56.55 57.19
50.13 50.78 50.51 50.51 50.34 50.92 51.26 51.79 52.00 52.77 53.64 54.66 54.66 53.26 50.53 53.74 55.00 52.77 53.37 51.91 51.90 52.57 52.00 52.30 52.12 50.43 50.04 50.13 47.72 45.43 45.51 41.36 45.09 45.94 45.78 46.37 43.26 49.39 52.57 52.55 52.41 53.88 54.63 55.22 55.89
49.67 50.63 50.45 50.24 50.23 50.45 51.15 51.42 52.10 52.94 54.22 54.91 51.55 52.44 49.13 53.93 50.29 52.33 52.86 50.36 51.04 51.54 51.99 51.05 51.22 48.64 48.50 44.69 42.45 43.85 39.41 41.63 42.67 46.40 44.81 46.49 45.05 49.83 52.72 52.73 52.02 52.67 53.02 53.67 54.52
49.69 49.48 49.92 49.95 50.13 49.99 50.37 51.34 54.22 53.82 54.47 53.09 53.10 48.98 49.95 46.84 50.20 51.25 52.43 51.77 49.41 48.93 47.51 47.62 47.41 44.44 44.15 42.61 37.41 39.90 40.31 42.81 42.01 44.79 47.28 46.63 46.00 49.61 51.78 51.82 51.69 51.97 52.32 52.40 52.81
49.20 49.08 49.17 49.69 49.74 49.93 50.14 54.29 49.20 48.57 51.66 46.87 48.06 47.55 47.72 50.34 51.20 49.84 51.46 49.65 49.07 47.29 43.15 46.14 42.46 40.00 42.46 44.50 45.03 44.73 43.01 42.43 44.16 48.24 47.34 46.19 46.24 48.26 50.59 51.01 50.52 50.99 51.58 52.06 52.58
48.94 48.82 49.35 49.50 49.67 49.94 51.16 52.07 50.92 51.82 46.54 49.48 49.61 49.22 50.05 50.46 45.99 48.04 51.30 46.28 45.54 42.02 45.59 43.35 40.84 44.86 45.32 45.04 44.58 44.80 43.03 41.70 45.81 48.65 47.61 46.30 45.23 47.96 49.38 49.58 50.34 50.54 50.88 51.62 52.53
48.81 48.67 48.88 49.15 48.90 51.74 53.90 52.51 55.22 55.70 47.15 47.34 48.29 47.50 48.07 48.92 46.32 46.56 49.02 47.50 44.54 43.44 43.15 41.85 43.82 44.95 43.82 43.08 42.89 44.01 42.74 41.20 41.30 45.14 48.04 45.80 43.15 45.25 48.65 50.11 50.85 51.37 52.12 52.25 52.20
49.27 49.16 49.03 48.58 48.68 53.52 50.93 55.07 56.61 56.71 42.40 43.41 44.21 47.01 47.79 48.45 45.03 49.93 50.69 48.02 45.16 43.02 44.75 42.85 44.10 43.07 42.89 42.81 44.55 41.31 45.60 44.36 43.10 43.34 39.34 46.70 37.11 43.55 46.33 47.03 49.04 50.29 51.25 51.87 52.50
49.31 48.95 48.86 47.67 47.35 51.23 53.13 56.01 56.34 54.46 33.01 45.09 44.58 50.60 48.29 45.36 46.31 46.27 50.73 47.82 44.25 44.24 43.69 40.87 40.98 41.59 41.67 43.04 44.34 42.37 44.75 44.01 43.40 43.29 42.80 43.01 39.13 42.60 46.03 44.63 46.71 49.16 50.17 50.97 51.53
49.45 48.58 48.44 48.43 50.39 53.46 55.37 56.42 54.51 39.78 29.19 40.95 44.45 42.82 42.64 44.28 45.52 46.99 46.22 49.25 48.63 44.46 44.23 42.35 45.75 44.73 44.10 44.57 44.94 45.03 43.36 43.54 43.72 42.17 36.43 40.82 39.42 39.93 42.77 44.90 46.45 48.59 49.32 49.47 49.58
49.50 48.61 47.08 47.92 47.32 53.30 55.25 52.64 38.71 31.34 42.10 40.04 40.63 42.64 41.80 41.24 43.07 44.14 42.46 42.19 40.32 37.47 38.39 40.70 41.15 43.45 45.03 41.63 43.80 43.45 41.20 34.86 34.04 34.78 34.59 42.10 39.39 42.37 45.61 47.27 47.67 47.38 47.87 48.50 49.14
49.54 48.23 48.42 48.93 50.48 54.95 52.36 44.70 31.08 38.06 39.83 43.44 42.35 41.95 39.24 42.46 42.40 42.63 41.73 39.93 44.06 43.29 39.48 36.17 33.01 40.26 44.12 42.75 40.69 41.21 41.62 38.90 31.36 32.31 35.46 41.15 36.92 40.84 46.98 48.40 48.69 48.55 48.18 48.56 48.60
48.78 48.33 48.75 52.07 54.43 52.52 46.73 34.53 35.35 39.32 42.90 41.70 41.64 38.80 38.89 42.11 42.22 41.69 41.17 40.60 43.44 44.46 39.19 37.84 36.56 42.35 43.22 44.90 44.53 42.34 39.50 44.76 40.10 39.86 36.91 38.27 40.71 44.66 46.37 46.09 46.89 47.00 47.60 47.57 48.39
45.27 45.22 46.09 53.10 56.17 48.96 42.42 36.45 40.71 44.16 44.62 43.70 38.08 40.53 37.53 39.90 39.04 40.02 40.18 43.38 43.03 45.29 46.39 43.17 35.20 40.97 41.94 44.18 44.59 43.48 46.43 38.57 40.07 32.37 30.60 37.06 37.82 39.31 41.50 43.41 45.64 45.66 46.48 47.40 48.51
43.43 40.33 51.05 55.14 52.85 43.37 34.67 38.37 42.24 46.34 45.63 42.31 40.80 40.46 40.75 40.17 40.15 39.64 40.51 43.53 44.29 43.05 45.46 43.84 40.47 37.37 40.54 39.44 39.46 41.49 40.67 42.51 42.66 40.59 34.40 33.61 37.11 45.82 43.83 45.15 44.99 46.26 47.08 47.35 47.90
41.06 35.07 50.74 53.57 38.78 41.62 35.49 40.92 43.75 44.39 46.13 43.58 44.19 43.03 41.67 42.31 40.45 40.25 40.57 42.89 45.30 44.16 40.55 44.18 41.79 33.82 36.83 43.31 44.24 43.45 41.92 42.12 37.63 35.66 39.68 38.19 36.68 47.74 47.32 46.62 46.68 46.08 46.84 47.71 47.91
36.96 39.65 50.00 49.10 32.80 32.80 39.42 40.48 43.19 43.15 43.43 42.89 42.17 44.00 45.23 42.33 39.43 41.28 42.82 45.30 44.03 42.84 41.55 43.37 40.10 33.23 34.47 38.37 41.57 39.83 42.40 43.05 42.92 41.30 36.86 35.06 35.84 46.76 46.39 45.20 45.59 45.17 46.32 46.96 47.67
36.45 32.25 39.92 43.73 42.63 37.81 35.57 36.84 39.04 44.70 44.19 44.48 43.49 44.53 43.42 41.91 43.53 41.02 41.80 42.23 43.67 43.64 42.85 43.92 41.31 37.98 33.79 36.94 39.10 36.40 39.83 42.00 40.55 36.67 36.88 37.86 39.04 42.36 43.06 42.98 43.91 44.24 45.55 46.69 47.34
36.33 33.55 38.58 32.95 33.91 37.40 38.05 38.05 36.72 38.53 43.44 44.55 42.29 42.39 41.82 40.33 40.65 40.49 41.92 40.28 41.88 39.82 42.16 42.29 38.25 40.55 39.64 40.75 40.59 38.99 39.14 39.38 38.03 38.87 36.32 39.15 40.21 42.58 43.85 44.25 44.93 45.18 45.98 46.08 46.16
32.83 34.37 38.26 37.12 37.96 36.83 36.07 35.82 36.85 39.45 42.03 40.10 40.87 42.33 42.99 41.21 42.37 39.94 40.89 39.09 37.64 39.82 39.67 42.61 37.57 39.80 35.67 37.31 37.48 38.09 40.24 39.96 39.07 39.60 39.03 39.46 38.17 42.64 43.29 44.33 43.95 44.79 45.51 45.22 45.10
39.12 39.78 33.37 33.39 35.60 34.45 35.72 35.28 37.12 40.62 43.22 44.36 43.33 42.62 41.95 44.24 46.64 47.21 46.63 44.59 43.08 38.69 39.28 39.35 38.59 35.99 31.09 36.48 35.27 31.15 35.80 38.72 40.07 40.88 40.20 36.18 40.23 43.36 42.20 42.69 44.02 45.09 45.88 44.99 44.81
MSLP
1022.62 1022.15 1021.74 1021.27 1020.80 1020.27 1019.85 1019.44 1019.15 1018.94 1018.48 1018.00 1017.50 1016.90 1016.32 1015.69 1014.51 1013.13 1012.49 1012.76 1012.58 1012.33 1012.21 1010.64 1009.28 1008.25 1007.64 1007.12 1006.23 1005.93 1005.35 1003.92 1003.32 1002.76 1004.00 1004.06 1004.12 1005.03 1005.58 1006.44 1006.74 1007.01 1007.29 1008.02 1008.47
1022.65 1022.14 1021.77 1021.18 1020.66 1020.29 1019.83 1019.39 1019.09 1018.78 1018.39 1017.91 1017.43 1016.83 1016.34 1015.74 1014.44 1012.60 1012.77 1012.49 1012.43 1012.50 1011.51 1009.86 1008.40 1007.52 1006.95 1006.16 1005.73 1005.82 1005.25 1004.89 1005.08 1004.72 1004.59 1005.11 1005.62 1005.76 1006.27 1007.31 1007.79 1007.99 1007.99 1008.07 1008.58
1022.67 1022.16 1021.78 1021.32 1020.86 1020.26 1019.61 1019.15 1018.93 1018.57 1018.17 1017.72 1017.29 1016.77 1016.27 1015.63 1013.90 1011.80 1012.18 1011.96 1012.04 1012.10 1011.31 1010.35 1009.20 1008.02 1006.78 1006.06 1005.72 1005.43 1005.34 1005.72 1006.38 1006.29 1005.44 1005.54 1006.84 1007.36 1007.15 1008.29 1008.71 1008.79 1008.69 1008.60 1008.32
1022.75 1022.23 1021.71 1021.26 1020.84 1020.14 1019.45 1018.92 1018.70 1018.39 1017.91 1017.46 1017.16 1016.78 1016.24 1015.33 1012.87 1011.73 1011.62 1011.47 1011.53 1011.33 1010.74 1009.60 1008.84 1007.62 1006.66 1005.75 1005.44 1005.62 1006.24 1006.29 1007.09 1007.08 1006.67 1006.42 1007.54 1008.47 1008.74 1009.19 1009.09 1009.16 1009.15 1009.14 1009.02
1022.69 1022.25 1021.70 1021.26 1020.69 1019.92 1019.10 1018.85 1018.55 1018.05 1017.63 1017.22 1016.97 1016.74 1015.97 1014.02 1011.48 1011.19 1011.30 1010.95 1010.86 1010.21 1009.63 1008.81 1008.11 1007.25 1006.10 1005.62 1005.72 1006.05 1006.88 1007.50 1007.85 1007.75 1007.46 1007.48 1007.80 1008.72 1009.24 1009.32 1009.19 1009.10 1009.46 1009.77 1009.73
1022.73 1022.15 1021.57 1021.27 1020.47 1019.48 1019.22 1018.84 1018.16 1017.72 1017.19 1016.97 1016.82 1016.82 1015.55 1012.52 1010.57 1010.54 1010.80 1010.61 1010.25 1009.80 1009.04 1008.71 1007.70 1006.78 1006.38 1005.70 1006.25 1005.95 1007.24 1008.02 1008.14 1008.23 1008.22 1007.83 1008.96 1009.01 1009.62 1009.24 1009.28 1009.57 1010.03 1010.86 1011.35
1022.71 1022.09 1021.56 1021.20 1020.23 1019.76 1019.30 1018.41 1017.69 1017.27 1016.82 1016.72 1016.65 1016.28 1013.89 1011.16 1010.73 1010.50 1010.64 1010.52 1010.47 1009.94 1009.01 1008.63 1008.12 1007.40 1006.75 1006.98 1007.43 1007.16 1008.06 1008.78 1008.84 1008.86 1008.94 1008.76 1009.82 1010.15 1010.06 1009.79 1009.91 1010.47 1011.29 1012.29 1012.98
1022.63 1021.98 1021.33 1020.90 1020.12 1019.66 1018.68 1017.77 1017.24 1016.83 1016.44 1016.31 1016.42 1015.80 1012.34 1010.77 1010.61 1010.51 1010.37 1010.20 1010.33 1010.02 1009.50 1009.52 1008.73 1008.06 1007.33 1007.92 1008.06 1008.08 1008.21 1008.61 1009.35 1009.45 1009.69 1009.85 1010.67 1011.06 1010.70 1010.71 1011.15 1011.84 1012.82 1013.67 1014.37
1022.49 1021.93 1021.33 1020.65 1019.81 1019.23 1018.14 1017.30 1016.58 1016.15 1016.15 1015.96 1015.97 1014.54 1010.87 1011.03 1010.70 1010.57 1010.65 1010.06 1010.01 1010.08 1010.01 1009.78 1008.94 1008.28 1008.44 1008.02 1008.06 1008.01 1007.61 1008.18 1008.96 1009.21 1009.59 1010.23 1011.44 1011.93 1011.77 1011.92 1012.53 1013.30 1014.10 1014.75 1015.32
1022.51 1021.98 1021.32 1020.48 1019.68 1019.06 1017.99 1016.46 1015.49 1015.83 1014.71 1014.81 1013.72 1012.62 1010.59 1010.13 1010.43 1010.60 1010.72 1010.44 1009.99 1010.00 1009.99 1009.70 1009.08 1008.43 1008.19 1007.38 1006.41 1006.55 1006.88 1007.28 1008.22 1008.94 1008.93 1010.52 1011.95 1012.41 1012.84 1013.08 1013.60 1014.29 1014.96 1015.49 1015.97
1022.44 1021.90 1021.14 1020.39 1019.67 1018.85 1017.99 1015.85 1015.32 1014.98 1013.74 1011.90 1011.25 1010.25 1010.14 1010.12 1010.69 1010.06 1010.36 1010.43 1010.20 1009.92 1009.33 1009.05 1008.81 1007.77 1007.08 1006.77 1005.79 1005.59 1006.04 1007.06 1008.42 1008.91 1009.96 1011.31 1012.38 1013.02 1013.47 1013.86 1014.28 1014.85 1015.39 1015.97 1016.45
1022.45 1021.81 1021.11 1020.27 1019.44 1018.69 1018.31 1016.19 1015.24 1015.44 1013.38 1011.40 1011.03 1010.07 1009.86 1009.85 1009.88 1009.91 1010.15 1009.98 1009.93 1009.32 1008.87 1008.72 1008.29 1007.87 1007.45 1006.90 1006.25 1005.31 1006.30 1008.20 1009.11 1009.62 1010.63 1011.86 1012.93 1013.72 1014.23 1014.69 1015.13 1015.57 1016.10 1016.53 1016.90
1022.55 1021.89 1021.13 1020.17 1019.03 1017.96 1016.57 1015.82 1015.43 1015.28 1013.63 1010.58 1010.24 1009.78 1009.97 1010.16 1009.36 1009.64 1009.70 1009.44 1009.20 1008.63 1008.52 1008.14 1008.46 1008.66 1008.05 1007.50 1006.76 1006.22 1007.11 1008.85 1009.43 1009.94 1010.78 1011.95 1013.05 1013.80 1014.51 1015.02 1015.57 1016.12 1016.57 1017.04 1017.41
1022.61 1022.02 1021.24 1020.28 1019.02 1017.58 1016.26 1015.95 1015.71 1015.86 1013.61 1009.83 1009.56 1008.92 1009.59 1009.46 1009.74 1009.92 1009.77 1009.55 1008.54 1008.06 1008.07 1008.92 1009.55 1009.02 1008.49 1007.95 1007.38 1007.44 1007.88 1008.74 1009.30 1009.56 1010.08 1010.41 1011.77 1013.22 1014.07 1014.82 1015.55 1016.24 1016.86 1017.40 1017.90
1022.60 1022.21 1021.50 1020.99 1019.96 1017.13 1016.74 1016.49 1016.14 1015.84 1012.90 1008.59 1008.78 1008.63 1008.89 1009.29 1009.49 1009.86 1009.95 1009.59 1008.46 1008.22 1009.11 1009.63 1009.88 1009.52 1009.08 1008.87 1009.28 1009.16 1009.54 1009.49 1009.81 1009.61 1009.80 1010.49 1011.10 1012.25 1013.43 1014.31 1015.36 1016.25 1017.18 1017.95 1018.40
1022.55 1022.21 1021.80 1019.80 1019.27 1017.72 1017.17 1016.96 1016.38 1015.33 1011.82 1008.62 1008.41 1008.77 1008.83 1009.00 1009.03 1009.58 1009.85 1009.72 1008.66 1009.01 1009.62 1009.94 1010.05 1010.01 1009.61 1010.38 1010.32 1010.62 1010.59 1010.55 1010.38 1010.07 1009.92 1009.67 1010.68 1011.95 1012.72 1013.78 1015.23 1016.38 1017.46 1018.30 1018.72
1022.38 1022.02 1021.91 1021.12 1018.76 1018.23 1017.80 1016.95 1015.78 1013.67 1009.78 1007.98 1007.86 1008.15 1008.44 1008.52 1008.88 1009.28 1009.38 1009.17 1008.75 1009.04 1009.37 1010.48 1010.78 1011.21 1010.80 1010.90 1011.25 1010.89 1010.65 1010.57 1010.49 1010.00 1009.57 1009.71 1010.67 1011.24 1012.98 1014.04 1015.33 1016.52 1017.54 1018.37 1018.95
1022.13 1021.73 1020.69 1020.04 1019.23 1018.21 1017.91 1016.65 1014.61 1011.23 1009.03 1007.42 1007.41 1007.88 1007.88 1007.91 1008.43 1008.84 1008.87 1008.61 1008.19 1008.14 1009.01 1009.59 1010.91 1011.12 1011.00 1010.40 1010.42 1010.70 1010.01 1008.97 1009.27 1009.46 1009.75 1010.57 1010.89 1012.40 1013.72 1014.87 1015.82 1016.79 1017.55 1018.18 1018.88
1021.97 1020.67 1019.15 1018.38 1018.63 1018.73 1017.67 1015.53 1012.65 1010.18 1007.64 1007.04 1007.17 1007.34 1007.52 1007.59 1008.18 1008.67 1008.46 1008.10 1007.88 1007.83 1008.26 1008.58 1009.77 1011.15 1011.19 1010.91 1010.69 1010.08 1010.00 1009.83 1009.65 1009.60 1009.63 1010.62 1012.58 1013.39 1014.40 1015.34 1016.09 1016.78 1017.50 1018.25 1018.82
1021.84 1020.10 1018.08 1017.43 1017.90 1018.35 1017.12 1014.25 1011.70 1009.48 1007.50 1005.91 1006.39 1006.82 1006.72 1007.06 1008.23 1008.23 1008.02 1007.57 1007.60 1008.15 1008.77 1008.12 1009.80 1011.15 1011.72 1011.74 1011.12 1010.72 1009.99 1010.12 1009.99 1009.48 1009.35 1009.63 1011.26 1011.61 1013.93 1015.02 1015.94 1016.84 1017.45 1018.12 1018.62
1022.13 1019.35 1017.01 1016.90 1017.82 1017.65 1015.28 1013.44 1011.55 1009.39 1007.63 1006.75 1006.37 1005.96 1006.16 1006.43 1007.53 1007.67 1007.30 1007.81 1008.00 1009.08 1009.65 1008.95 1009.54 1011.25 1011.99 1011.43 1010.48 1010.97 1010.32 1010.15 1009.69 1009.84 1009.58 1009.39 1010.38 1010.93 1013.07 1014.36 1015.47 1016.39 1017.37 1018.01 1018.67
1021.90 1019.30 1017.19 1017.61 1017.59 1016.13 1014.68 1013.10 1011.41 1009.26 1007.87 1007.32 1006.44 1005.98 1005.82 1005.82 1006.54 1007.01 1006.95 1007.74 1008.76 1009.56 1009.95 1009.69 1009.98 1011.04 1011.13 1010.73 1011.08 1010.14 1009.98 1010.20 1009.96 1010.42 1010.19 1010.34 1012.12 1012.41 1013.34 1014.43 1015.51 1016.36 1017.28 1017.96 1018.65
1021.34 1019.20 1017.41 1017.61 1016.72 1015.87 1014.77 1013.01 1011.63 1009.78 1008.04 1007.34 1006.42 1006.38 1005.90 1005.57 1006.08 1006.82 1007.31 1008.12 1009.50 1010.13 1009.97 1010.30 1010.47 1010.67 1011.28 1011.75 1011.44 1010.99 1010.47 1010.04 1010.60 1011.25 1010.47 1011.07 1012.51 1013.34 1014.23 1015.11 1016.11 1016.68 1017.27 1017.78 1018.47
1022.10 1019.22 1017.46 1017.32 1016.48 1015.74 1014.84 1012.97 1011.13 1009.98 1008.64 1007.33 1006.62 1006.73 1006.21 1005.78 1005.79 1006.54 1007.67 1009.58 1010.28 1010.51 1011.04 1011.04 1010.44 1010.30 1010.10 1009.33 1009.93 1010.78 1010.64 1010.90 1011.34 1011.63 1011.15 1011.19 1012.48 1013.54 1014.39 1015.12 1015.92 1016.55 1017.12 1017.71 1018.38
1021.95 1019.44 1017.35 1016.56 1016.55 1015.73 1014.92 1012.90 1011.20 1009.29 1008.40 1007.31 1006.62 1006.33 1006.27 1005.85 1005.90 1006.54 1008.15 1010.15 1011.11 1011.82 1011.75 1011.79 1010.83 1010.58 1010.80 1010.42 1010.14 1010.41 1010.48 1010.89 1011.12 1011.50 1011.57 1011.44 1011.72 1012.68 1013.66 1014.59 1015.28 1016.27 1017.07 1017.78 1018.42
1021.57 1020.62 1018.58 1016.61 1015.48 1014.79 1014.07 1012.53 1011.04 1009.22 1007.99 1006.88 1006.36 1006.29 1006.10 1005.86 1005.74 1006.43 1007.99 1009.81 1010.43 1012.01 1012.03 1011.94 1011.40 1011.32 1011.73 1011.67 1011.31 1010.72 1010.59 1010.73 1010.98 1011.17 1011.57 1011.73 1011.92 1012.42 1013.40 1014.37 1015.65 1016.51 1017.17 1017.73 1018.37
1021.05 1020.99 1020.81 1017.83 1015.72 1014.24 1013.00 1012.12 1010.70 1010.17 1007.87 1006.57 1006.36 1006.17 1005.80 1005.57 1005.96 1006.59 1008.21 1009.78 1010.03 1010.92 1011.28 1011.68 1011.54 1011.94 1012.21 1012.18 1012.18 1011.81 1010.61 1010.29 1010.33 1010.63 1010.97 1011.29 1011.89 1012.37 1013.29 1014.17 1015.40 1016.29 1016.93 1017.75 1018.56
Wind_Speed
18 19 20 19 19 19 19 19 20 22 22 22 22 20 19 17 20 9 8 4 6 14 14 14 17 12 11 10 9 11 10 12 12 15 11 9 15 6 20 20 17 18 15 12 9
19 20 20 21 20 19 19 20 21 22 22 22 21 19 17 16 8 16 2 1 4 8 10 13 11 7 9 10 6 7 9 6 13 13 9 12 18 11 17 17 16 15 15 12 10
20 20 21 21 21 20 20 20 21 22 22 21 20 19 14 14 8 3 2 3 6 9 11 15 14 9 13 9 7 9 5 11 10 7 8 14 17 16 11 13 11 11 11 12 7
19 21 21 22 21 21 21 20 21 22 22 20 18 17 13 6 3 5 1 6 8 11 11 13 12 13 9 12 11 4 2 10 8 10 6 11 16 14 13 9 6 8 8 9 9
20 20 21 23 22 22 22 21 22 22 21 18 15 13 9 8 9 8 3 9 11 11 11 11 12 12 14 13 6 10 11 8 5 8 7 4 15 14 11 5 7 8 12 9 14
19 20 22 23 23 23 23 22 22 23 20 16 11 9 7 13 4 2 5 7 7 10 10 10 11 10 9 3 8 10 12 7 3 7 2 12 13 14 9 6 10 14 14 21 22
20 19 21 24 24 24 23 23 22 22 20 14 9 8 10 10 1 6 1 3 5 11 7 7 11 8 2 5 3 7 14 8 3 6 2 19 13 11 7 7 13 15 20 20 21
21 20 19 22 23 24 24 23 22 22 19 14 7 10 8 3 7 1 5 4 5 6 5 6 8 10 6 8 7 10 11 7 5 6 3 4 13 11 8 13 16 20 18 19 20
21 21 21 22 22 26 25 26 23 20 15 10 7 11 9 6 7 1 5 4 2 3 3 5 6 5 3 12 11 14 12 12 7 10 8 7 12 11 13 14 16 17 17 17 17
22 22 22 22 22 25 28 27 14 9 10 10 14 9 7 7 5 3 3 5 4 7 7 8 7 7 10 13 13 15 17 17 10 12 10 19 15 13 14 14 16 16 15 15 17
20 23 23 23 24 23 18 8 5 7 12 8 7 10 5 5 6 4 4 6 6 6 9 11 9 12 17 17 18 19 17 16 11 17 20 18 16 14 14 14 14 14 14 15 15
18 21 24 24 25 25 10 8 8 5 9 15 12 8 2 3 5 4 7 9 7 11 12 9 14 6 5 1 9 8 17 17 10 17 18 18 17 14 13 13 13 13 13 13 14
18 20 23 26 27 13 8 6 8 11 8 11 14 14 10 10 4 6 7 11 9 10 12 13 10 2 4 5 10 8 17 17 18 11 19 19 16 14 14 13 13 12 12 12 13
16 17 19 27 10 12 6 8 9 8 7 12 11 7 8 6 6 1 5 7 4 13 8 7 4 6 8 11 8 10 4 16 20 18 16 22 9 15 15 13 11 11 10 11 11
15 17 18 18 11 6 10 10 7 4 5 16 14 7 12 10 10 8 4 4 8 8 3 6 8 10 13 8 5 7 4 8 16 16 10 19 5 13 15 14 11 12 11 11 10
14 15 17 12 7 10 10 11 6 2 8 9 12 10 12 14 8 8 9 7 5 6 6 10 4 2 5 7 4 12 9 6 9 9 8 12 14 13 14 14 11 10 12 11 11
14 16 14 11 6 13 9 6 4 6 6 11 12 13 17 12 12 9 11 12 8 11 15 8 7 2 8 12 6 12 15 7 8 7 8 12 8 11 15 12 12 10 12 11 10
15 17 13 11 12 9 7 6 9 10 17 6 10 14 18 15 13 12 13 14 16 14 14 12 6 11 12 7 7 16 17 3 7 11 10 7 7 10 14 13 11 10 10 10 9
15 11 9 7 9 7 8 10 9 10 15 15 11 13 17 16 11 14 16 16 14 17 9 15 8 8 7 4 9 13 7 4 2 2 7 11 10 10 13 13 10 9 9 7 6
7 12 13 11 7 7 10 13 14 18 16 14 17 16 20 19 11 14 15 15 16 12 1 2 8 10 6 5 6 6 3 5 4 4 5 13 15 8 18 15 12 10 7 7 5
5 7 4 9 7 9 11 11 20 20 13 10 16 15 18 16 17 18 13 5 9 9 9 2 6 9 8 11 13 6 6 5 4 3 5 5 4 13 18 16 13 10 7 4 4
4 4 4 4 8 6 12 21 14 19 19 15 18 24 14 19 19 18 18 11 10 12 9 3 5 8 14 6 6 10 12 11 5 7 4 4 6 10 13 12 9 7 6 4 2
4 6 6 5 7 10 12 24 25 23 23 16 16 14 15 17 15 19 18 10 13 13 11 8 6 9 5 3 6 6 8 9 2 2 9 3 8 10 12 11 9 7 5 5 6
5 4 7 7 10 16 18 22 24 21 26 21 16 15 14 18 14 14 12 8 12 10 7 3 7 8 7 2 13 12 15 12 9 3 3 6 16 14 12 11 12 7 5 6 5
3 5 7 5 9 16 19 16 23 26 22 18 19 20 17 15 16 13 15 12 12 4 6 4 6 7 2 4 8 14 16 15 14 8 6 6 15 18 16 12 8 5 7 5 5
5 5 10 13 16 19 22 20 27 23 25 25 21 20 17 16 17 15 15 17 12 10 13 6 6 8 5 4 1 8 11 16 16 15 11 7 4 8 9 9 6 8 8 5 2
4 9 6 11 20 19 16 26 22 24 25 25 22 17 19 20 13 11 15 15 7 13 14 11 8 9 6 8 3 5 17 17 15 17 14 13 10 8 5 8 10 9 7 5 2
Wind_Direction
349 346 344 342 340 339 338 336 333 327 323 320 317 320 324 330 312 265 266 22 325 318 306 281 275 263 232 254 255 287 270 253 323 85 92 47 77 40 84 67 57 43 80 84 115
347 347 343 342 340 337 336 335 332 325 320 317 314 316 323 330 301 277 119 257 307 294 307 326 299 226 242 239 221 217 229 50 38 61 86 72 55 6 89 61 51 49 34 105 114
345 345 341 340 337 334 335 334 330 323 319 314 311 312 321 318 284 112 251 344 292 272 264 276 285 273 254 229 222 235 293 89 59 11 30 90 73 34 67 59 51 49 46 33 64
343 342 341 337 334 334 334 331 327 321 317 311 308 308 314 276 266 76 42 298 268 275 278 262 246 245 233 229 213 221 20 59 76 37 38 72 99 68 55 56 55 72 47 43 57
342 341 341 336 333 334 335 327 323 320 315 308 304 305 287 217 254 130 214 255 264 268 262 247 246 242 238 208 174 244 107 104 107 89 43 187 97 86 55 55 84 84 71 53 38
339 340 342 333 333 336 329 322 320 317 313 305 299 302 250 244 45 350 351 293 269 276 259 249 249 260 308 229 207 135 125 100 81 99 63 93 57 52 47 60 76 75 74 53 47
337 338 341 332 336 329 322 322 319 312 306 293 289 265 257 251 352 345 220 301 288 287 267 306 303 239 186 61 1 136 130 102 44 168 103 115 75 63 63 89 79 68 67 57 48
335 336 340 332 334 323 322 320 314 306 297 278 276 262 268 80 335 286 292 209 235 255 305 297 257 275 205 106 154 187 176 180 131 170 148 293 94 69 47 81 78 69 63 63 57
336 334 336 332 333 323 323 314 304 293 272 269 264 220 250 117 218 99 293 267 198 235 253 267 272 203 205 179 179 199 197 179 131 187 159 168 109 78 69 85 82 80 75 67 63
340 336 334 332 329 325 325 300 284 312 239 249 254 236 202 219 102 241 168 246 236 182 199 210 212 198 211 209 196 194 228 166 132 168 139 111 108 104 98 88 93 87 79 73 66
340 336 335 331 326 324 334 326 211 206 229 229 289 246 126 102 187 197 175 198 209 239 218 202 212 205 202 212 241 289 198 105 136 125 120 120 118 106 103 98 88 81 81 80 72
338 338 334 328 321 317 300 281 44 329 292 227 262 279 9 213 176 174 187 211 198 218 220 178 228 74 16 306 240 192 127 129 120 132 129 128 120 115 101 90 88 90 76 66 71
331 337 334 326 318 296 279 3 327 345 256 197 216 224 196 211 222 144 229 210 215 224 202 206 103 128 176 201 210 166 142 154 169 184 136 132 131 129 125 119 112 93 81 77 68
325 331 334 330 296 335 283 1 346 337 274 193 196 219 167 210 206 311 299 299 249 196 143 78 118 172 190 187 224 129 113 180 165 177 164 182 137 146 141 127 113 101 89 78 63
319 325 330 324 304 307 358 334 305 269 284 137 164 111 175 192 123 172 193 237 228 108 73 125 173 193 203 110 357 148 138 150 174 198 158 201 227 152 154 140 123 105 84 75 71
310 315 327 321 285 277 339 312 282 245 243 188 145 192 175 212 209 124 182 238 311 142 209 151 167 239 119 93 343 137 151 176 196 220 230 188 210 173 183 144 122 112 98 90 79
300 299 300 295 276 336 321 263 205 194 250 182 188 191 197 186 187 184 182 191 172 179 151 142 182 97 142 136 160 185 169 149 192 184 238 153 176 101 107 114 121 117 112 101 86
296 295 283 270 278 308 281 221 218 223 242 74 186 195 203 187 196 198 189 197 220 209 161 181 180 168 203 211 186 209 204 220 200 200 150 161 178 148 123 119 120 120 112 108 92
301 281 272 254 217 252 242 219 209 225 206 235 194 195 208 193 213 202 213 210 189 218 192 201 121 104 188 240 288 177 225 321 263 239 160 154 88 102 136 139 141 133 123 109 89
291 295 272 239 177 228 233 228 228 248 287 196 205 203 204 194 194 198 200 214 195 213 291 294 122 184 152 261 256 274 182 186 242 203 208 172 165 169 173 165 160 156 158 129 91
286 280 65 139 171 223 222 231 233 255 269 248 230 220 224 193 195 198 200 158 165 180 246 210 127 155 153 209 187 183 205 238 273 320 238 189 119 128 163 163 162 161 145 116 86
276 254 120 188 209 241 231 226 242 239 242 257 259 238 220 218 197 218 224 177 176 184 198 151 210 162 196 82 346 254 207 203 215 183 245 347 101 115 138 130 140 144 147 157 113
260 265 199 205 234 232 268 235 246 254 251 235 243 240 243 246 191 224 212 121 157 185 196 154 167 158 183 227 214 232 226 200 92 302 211 183 135 136 137 138 154 158 196 155 141
287 265 228 215 243 250 226 249 238 236 254 244 242 241 232 245 174 208 145 156 165 185 34 87 213 192 206 185 154 195 200 204 174 192 234 194 137 160 163 173 174 170 168 173 114
214 268 233 212 240 241 259 249 237 237 227 249 222 236 218 219 184 216 145 158 188 125 163 242 223 202 64 49 161 183 190 190 199 199 193 214 172 179 184 185 185 160 156 175 198
251 258 257 264 256 223 232 248 243 244 233 226 224 225 209 224 205 200 164 176 177 167 184 222 198 183 174 167 193 197 202 195 209 205 206 223 209 108 130 142 156 187 192 187 206
227 257 261 302 254 244 234 229 246 246 255 234 229 229 220 220 214 226 167 180 192 168 183 171 161 158 205 182 160 271 228 216 211 213 213 213 214 219 157 176 178 190 190 181 131